Powrót do katalogu

STARLINK-31022

AktywnyŁącznośćVLEO
NORAD 58633·PAYLOAD·🇺🇸 United States

Wystrzelony Dec 23, 2023 z Cape Canaveral Space Force Station

Loading…

Następne Przeloty (najbliższe 24 godziny)

TLE

ŚwieżeSource: CelesTrak SupGP

Epoka: Sep 14, 2026, 13:58 UTC

1 58633C 23203R   26257.58243056 -.00001617  00000+0 -58546-4 0  2575
2 58633  43.0031  84.2224 0001492 263.5998 135.5436 15.27587892    10

Śledź STARLINK-31022 w czasie rzeczywistym z AllMySat

Download on the App Store